When you browse on this site, cookies collect data to enhance your experience and personalize the content and advertising you see.
Visit our Privacy Policy to learn more. By continuing to use the site, you agree to this use of cookies and data.

Hourly Weather Jambol

Today, 15 July, Wednesday

Time Temperature Precipitation Wind Pressure Humidity
00:00 +15°C° 0 mm 1 mps 750 mmHg 74%
01:00 +15°C° 0 mm 1 mps 750 mmHg 75%
02:00 +14°C° 0 mm 0 mps 750 mmHg 79%
03:00 +14°C° 0 mm 0 mps 750 mmHg 79%
04:00 +13°C° 0 mm 0 mps 750 mmHg 80%
05:00 +13°C° 0 mm 0 mps 750 mmHg 80%
06:00 +16°C° 0 mm 0 mps 750 mmHg 72%
07:00 +18°C° 0 mm 0 mps 751 mmHg 63%
08:00 +20°C° 0 mm 0 mps 751 mmHg 55%
09:00 +24°C° 0 mm 1 mps 751 mmHg 49%
10:00 +25°C° 0 mm 1 mps 751 mmHg 43%
11:00 +27°C° 0 mm 2 mps 750 mmHg 36%
12:00 +27°C° 0 mm 2 mps 750 mmHg 35%
13:00 +28°C° 0 mm 2 mps 750 mmHg 33%
14:00 +29°C° 0 mm 2 mps 750 mmHg 31%
15:00 +29°C° 0 mm 3 mps 750 mmHg 32%
16:00 +29°C° 0 mm 3 mps 749 mmHg 33%
17:00 +28°C° 0 mm 3 mps 749 mmHg 34%
18:00 +26°C° 0 mm 3 mps 749 mmHg 41%
19:00 +24°C° 0 mm 3 mps 749 mmHg 49%
20:00 +20°C° 0 mm 3 mps 749 mmHg 56%
21:00 +19°C° 0 mm 2 mps 749 mmHg 59%
22:00 +18°C° 0 mm 2 mps 749 mmHg 63%
23:00 +18°C° 0 mm 1 mps 749 mmHg 67%

Tomorrow, 16 July, Thursday

Time Temperature Precipitation Wind Pressure Humidity
00:00 +18°C° 0 mm 1 mps 749 mmHg 68%
01:00 +18°C° 0 mm 1 mps 749 mmHg 69%
02:00 +18°C° 0 mm 1 mps 749 mmHg 70%
03:00 +16°C° 0 mm 0 mps 749 mmHg 69%
04:00 +16°C° 0 mm 0 mps 748 mmHg 68%
05:00 +16°C° 0 mm 0 mps 748 mmHg 68%
06:00 +17°C° 0 mm 0 mps 748 mmHg 62%
07:00 +19°C° 0 mm 0 mps 748 mmHg 57%
08:00 +21°C° 0 mm 0 mps 748 mmHg 51%
09:00 +23°C° 0 mm 0 mps 748 mmHg 46%
10:00 +26°C° 0 mm 1 mps 748 mmHg 42%
11:00 +28°C° 0 mm 1 mps 748 mmHg 37%
12:00 +28°C° 0 mm 1 mps 748 mmHg 36%
13:00 +29°C° 0 mm 2 mps 748 mmHg 35%
14:00 +30°C° 0 mm 2 mps 747 mmHg 34%
15:00 +29°C° 0.1 mm 2 mps 747 mmHg 38%
16:00 +29°C° 0.1 mm 3 mps 747 mmHg 41%
17:00 +28°C° 0.1 mm 3 mps 747 mmHg 44%
18:00 +26°C° 0 mm 3 mps 747 mmHg 49%
19:00 +24°C° 0 mm 2 mps 747 mmHg 54%
20:00 +21°C° 0 mm 2 mps 747 mmHg 59%
21:00 +20°C° 0 mm 2 mps 747 mmHg 62%
22:00 +20°C° 0 mm 1 mps 747 mmHg 64%
23:00 +19°C° 0 mm 1 mps 747 mmHg 67%

Day after tomorrow, 17 July, Friday

Time Temperature Precipitation Wind Pressure Humidity
00:00 +19°C° 0 mm 1 mps 747 mmHg 69%
01:00 +19°C° 0 mm 1 mps 747 mmHg 70%
02:00 +17°C° 0 mm 0 mps 747 mmHg 72%
03:00 +16°C° 0 mm 0 mps 747 mmHg 73%
04:00 +16°C° 0 mm 0 mps 747 mmHg 73%
05:00 +18°C° 0 mm 1 mps 747 mmHg 74%
06:00 +20°C° 0 mm 1 mps 747 mmHg 68%
07:00 +22°C° 0 mm 1 mps 747 mmHg 61%
08:00 +25°C° 0 mm 1 mps 748 mmHg 54%
09:00 +26°C° 0 mm 1 mps 748 mmHg 49%
10:00 +28°C° 0 mm 2 mps 747 mmHg 44%
11:00 +29°C° 0 mm 2 mps 747 mmHg 39%
12:00 +30°C° 0 mm 2 mps 747 mmHg 39%
13:00 +30°C° 0 mm 3 mps 747 mmHg 38%
14:00 +30°C° 0 mm 3 mps 747 mmHg 38%
15:00 +30°C° 0 mm 3 mps 747 mmHg 38%
16:00 +30°C° 0 mm 4 mps 746 mmHg 39%
17:00 +30°C° 0 mm 4 mps 746 mmHg 39%
18:00 +27°C° 0 mm 4 mps 746 mmHg 46%
19:00 +25°C° 0 mm 3 mps 746 mmHg 52%
20:00 +22°C° 0 mm 3 mps 746 mmHg 59%
21:00 +21°C° 0 mm 2 mps 747 mmHg 64%
22:00 +19°C° 0 mm 2 mps 747 mmHg 69%
23:00 +18°C° 0 mm 2 mps 747 mmHg 74%

18 July, Saturday

Time Temperature Precipitation Wind Pressure Humidity
00:00 +19°C° 0 mm 1 mps 747 mmHg 75%
01:00 +19°C° 0 mm 1 mps 747 mmHg 77%
02:00 +18°C° 0 mm 1 mps 747 mmHg 78%
03:00 +16°C° 0 mm 0 mps 747 mmHg 77%
04:00 +16°C° 0 mm 0 mps 747 mmHg 77%
05:00 +16°C° 0 mm 0 mps 747 mmHg 76%
06:00 +20°C° 0 mm 1 mps 747 mmHg 68%
07:00 +22°C° 0 mm 1 mps 747 mmHg 59%
08:00 +25°C° 0 mm 1 mps 747 mmHg 50%
09:00 +26°C° 0 mm 2 mps 747 mmHg 47%
10:00 +28°C° 0 mm 3 mps 747 mmHg 43%
11:00 +30°C° 0 mm 4 mps 747 mmHg 39%
12:00 +32°C° 0 mm 4 mps 747 mmHg 37%
13:00 +33°C° 0 mm 4 mps 746 mmHg 35%
14:00 +34°C° 0 mm 5 mps 746 mmHg 34%
15:00 +33°C° 0 mm 5 mps 746 mmHg 36%
16:00 +32°C° 0 mm 5 mps 746 mmHg 39%
17:00 +32°C° 0 mm 5 mps 746 mmHg 41%
18:00 +28°C° 0 mm 5 mps 746 mmHg 51%
19:00 +26°C° 0 mm 4 mps 746 mmHg 60%
20:00 +24°C° 0 mm 3 mps 746 mmHg 69%
21:00 +22°C° 0 mm 3 mps 747 mmHg 76%
22:00 +21°C° 0 mm 2 mps 747 mmHg 83%
23:00 +20°C° 0 mm 2 mps 747 mmHg 89%

19 July, Sunday

Time Temperature Precipitation Wind Pressure Humidity
00:00 +20°C° 0 mm 2 mps 747 mmHg 90%
01:00 +19°C° 0 mm 2 mps 747 mmHg 91%
02:00 +19°C° 0 mm 2 mps 747 mmHg 92%
03:00 +19°C° 0 mm 2 mps 747 mmHg 91%
04:00 +19°C° 0 mm 2 mps 747 mmHg 90%
05:00 +18°C° 0 mm 2 mps 747 mmHg 90%
06:00 +20°C° 0 mm 2 mps 747 mmHg 82%
07:00 +23°C° 0 mm 2 mps 747 mmHg 73%
08:00 +24°C° 0 mm 2 mps 747 mmHg 65%
09:00 +26°C° 0 mm 2 mps 747 mmHg 59%
10:00 +28°C° 0 mm 3 mps 747 mmHg 54%
11:00 +29°C° 0 mm 3 mps 747 mmHg 48%
12:00 +30°C° 0 mm 3 mps 747 mmHg 46%
13:00 +31°C° 0 mm 3 mps 747 mmHg 44%
14:00 +31°C° 0 mm 3 mps 746 mmHg 42%
15:00 +31°C° 0 mm 3 mps 746 mmHg 43%
16:00 +32°C° 0 mm 4 mps 746 mmHg 44%
17:00 +32°C° 0 mm 4 mps 746 mmHg 45%
18:00 +29°C° 0 mm 3 mps 746 mmHg 51%
19:00 +27°C° 0 mm 3 mps 746 mmHg 58%
20:00 +25°C° 0 mm 3 mps 746 mmHg 65%
21:00 +24°C° 0 mm 2 mps 746 mmHg 68%
22:00 +24°C° 0 mm 2 mps 747 mmHg 70%
23:00 +23°C° 0 mm 2 mps 747 mmHg 73%

20 July, Monday

Time Temperature Precipitation Wind Pressure Humidity
00:00 +23°C° 0 mm 1 mps 747 mmHg 73%
01:00 +23°C° 0 mm 1 mps 747 mmHg 74%
02:00 +22°C° 0 mm 1 mps 747 mmHg 74%
03:00 +22°C° 0 mm 1 mps 747 mmHg 75%
04:00 +22°C° 0 mm 1 mps 747 mmHg 75%
05:00 +22°C° 0 mm 1 mps 747 mmHg 75%
06:00 +23°C° 0 mm 1 mps 747 mmHg 69%
07:00 +24°C° 0 mm 2 mps 747 mmHg 62%
08:00 +25°C° 0 mm 2 mps 747 mmHg 56%
09:00 +27°C° 0 mm 2 mps 747 mmHg 51%
10:00 +28°C° 0 mm 3 mps 747 mmHg 46%
11:00 +30°C° 0 mm 3 mps 747 mmHg 42%
12:00 +30°C° 0 mm 3 mps 746 mmHg 39%
13:00 +32°C° 0 mm 4 mps 746 mmHg 37%
14:00 +33°C° 0 mm 4 mps 746 mmHg 35%
15:00 +32°C° 0 mm 5 mps 746 mmHg 35%
16:00 +32°C° 0 mm 5 mps 745 mmHg 36%
17:00 +30°C° 0 mm 6 mps 745 mmHg 37%
18:00 +28°C° 0 mm 4 mps 745 mmHg 43%
19:00 +26°C° 0 mm 3 mps 746 mmHg 50%
20:00 +24°C° 0 mm 2 mps 746 mmHg 56%
21:00 +24°C° 0 mm 2 mps 746 mmHg 58%
22:00 +23°C° 0 mm 2 mps 746 mmHg 60%
23:00 +21°C° 0 mm 2 mps 747 mmHg 62%
Show more